When you browse on this site, cookies collect data to enhance your experience and personalize the content and advertising you see.
Visit our Privacy Policy to learn more. By continuing to use the site, you agree to this use of cookies and data.
EN

Hourly Weather Balchik

Today, 11 August, Tuesday

Time Temperature Precipitation Wind Pressure Humidity
00:00 +21°C° 0 mm 1 mps 738 mmHg 56%
01:00 +21°C° 0 mm 1 mps 738 mmHg 53%
02:00 +21°C° 0 mm 1 mps 738 mmHg 51%
03:00 +21°C° 0 mm 1 mps 738 mmHg 50%
04:00 +21°C° 0 mm 1 mps 738 mmHg 48%
05:00 +21°C° 0 mm 1 mps 738 mmHg 47%
06:00 +24°C° 0 mm 1 mps 739 mmHg 41%
07:00 +26°C° 0 mm 1 mps 739 mmHg 36%
08:00 +29°C° 0 mm 1 mps 739 mmHg 31%
09:00 +30°C° 0 mm 2 mps 739 mmHg 29%
10:00 +31°C° 0 mm 2 mps 739 mmHg 28%
11:00 +34°C° 0 mm 2 mps 740 mmHg 26%
12:00 +32°C° 0 mm 2 mps 739 mmHg 27%
13:00 +33°C° 0 mm 3 mps 739 mmHg 28%
14:00 +33°C° 0 mm 3 mps 739 mmHg 29%
15:00 +32°C° 0 mm 4 mps 739 mmHg 31%
16:00 +30°C° 0 mm 4 mps 739 mmHg 32%
17:00 +30°C° 0 mm 4 mps 738 mmHg 34%
18:00 +28°C° 0 mm 4 mps 738 mmHg 40%
19:00 +26°C° 0 mm 3 mps 738 mmHg 47%
20:00 +24°C° 0 mm 2 mps 738 mmHg 53%
21:00 +23°C° 0 mm 2 mps 738 mmHg 54%
22:00 +23°C° 0 mm 2 mps 738 mmHg 55%
23:00 +21°C° 0 mm 2 mps 738 mmHg 56%

Tomorrow, 12 August, Wednesday

Time Temperature Precipitation Wind Pressure Humidity
00:00 +21°C° 0 mm 2 mps 738 mmHg 57%
01:00 +22°C° 0 mm 1 mps 738 mmHg 58%
02:00 +21°C° 0 mm 1 mps 738 mmHg 59%
03:00 +21°C° 0 mm 1 mps 738 mmHg 58%
04:00 +21°C° 0 mm 1 mps 738 mmHg 57%
05:00 +22°C° 0 mm 1 mps 738 mmHg 56%
06:00 +24°C° 0 mm 1 mps 738 mmHg 49%
07:00 +26°C° 0 mm 1 mps 738 mmHg 43%
08:00 +28°C° 0 mm 1 mps 739 mmHg 36%
09:00 +30°C° 0 mm 1 mps 739 mmHg 33%
10:00 +32°C° 0 mm 2 mps 739 mmHg 30%
11:00 +34°C° 0 mm 2 mps 739 mmHg 27%
12:00 +34°C° 0 mm 3 mps 739 mmHg 29%
13:00 +33°C° 0 mm 3 mps 738 mmHg 31%
14:00 +33°C° 0 mm 4 mps 738 mmHg 33%
15:00 +32°C° 0 mm 4 mps 738 mmHg 35%
16:00 +32°C° 0 mm 4 mps 738 mmHg 37%
17:00 +30°C° 0 mm 4 mps 738 mmHg 39%
18:00 +28°C° 0 mm 4 mps 738 mmHg 45%
19:00 +26°C° 0 mm 3 mps 738 mmHg 51%
20:00 +24°C° 0 mm 2 mps 738 mmHg 57%
21:00 +24°C° 0.1 mm 2 mps 738 mmHg 58%
22:00 +23°C° 0.1 mm 1 mps 738 mmHg 60%
23:00 +23°C° 0.1 mm 1 mps 738 mmHg 62%

Day after tomorrow, 13 August, Thursday

Time Temperature Precipitation Wind Pressure Humidity
00:00 +22°C° 0.1 mm 1 mps 739 mmHg 65%
01:00 +20°C° 0.1 mm 2 mps 739 mmHg 68%
02:00 +20°C° 0.1 mm 2 mps 739 mmHg 71%
03:00 +19°C° 0.1 mm 3 mps 739 mmHg 75%
04:00 +19°C° 0.1 mm 3 mps 739 mmHg 79%
05:00 +18°C° 0.1 mm 3 mps 739 mmHg 84%
06:00 +20°C° 0.1 mm 3 mps 739 mmHg 78%
07:00 +22°C° 0.1 mm 4 mps 740 mmHg 73%
08:00 +23°C° 0.1 mm 4 mps 740 mmHg 67%
09:00 +26°C° 0.3 mm 5 mps 740 mmHg 62%
10:00 +27°C° 0.3 mm 5 mps 741 mmHg 56%
11:00 +29°C° 0.3 mm 5 mps 741 mmHg 50%
12:00 +29°C° 0.3 mm 5 mps 741 mmHg 50%
13:00 +29°C° 0.3 mm 4 mps 740 mmHg 49%
14:00 +29°C° 0.3 mm 4 mps 740 mmHg 49%
15:00 +28°C° 0 mm 4 mps 740 mmHg 48%
16:00 +28°C° 0 mm 4 mps 740 mmHg 47%
17:00 +28°C° 0 mm 4 mps 740 mmHg 47%
18:00 +26°C° 0 mm 4 mps 740 mmHg 56%
19:00 +24°C° 0 mm 3 mps 740 mmHg 66%
20:00 +20°C° 0 mm 3 mps 740 mmHg 76%
21:00 +20°C° 0 mm 3 mps 740 mmHg 79%
22:00 +19°C° 0 mm 2 mps 740 mmHg 82%
23:00 +18°C° 0 mm 2 mps 740 mmHg 84%

14 August, Friday

Time Temperature Precipitation Wind Pressure Humidity
00:00 +18°C° 0 mm 2 mps 740 mmHg 85%
01:00 +18°C° 0 mm 2 mps 740 mmHg 85%
02:00 +18°C° 0 mm 2 mps 740 mmHg 85%
03:00 +19°C° 0 mm 1 mps 739 mmHg 86%
04:00 +19°C° 0 mm 1 mps 739 mmHg 86%
05:00 +18°C° 0 mm 1 mps 739 mmHg 86%
06:00 +21°C° 0 mm 1 mps 739 mmHg 72%
07:00 +23°C° 0 mm 2 mps 740 mmHg 58%
08:00 +25°C° 0 mm 3 mps 740 mmHg 44%
09:00 +27°C° 0 mm 3 mps 740 mmHg 40%
10:00 +28°C° 0 mm 3 mps 740 mmHg 36%
11:00 +30°C° 0 mm 3 mps 740 mmHg 32%
12:00 +30°C° 0 mm 4 mps 740 mmHg 31%
13:00 +30°C° 0 mm 4 mps 740 mmHg 31%
14:00 +32°C° 0 mm 5 mps 739 mmHg 31%
15:00 +30°C° 0 mm 5 mps 739 mmHg 34%
16:00 +29°C° 0 mm 5 mps 739 mmHg 37%
17:00 +28°C° 0 mm 6 mps 739 mmHg 41%
18:00 +26°C° 0 mm 5 mps 739 mmHg 49%
19:00 +23°C° 0 mm 5 mps 739 mmHg 58%
20:00 +21°C° 0 mm 4 mps 739 mmHg 66%
21:00 +20°C° 0 mm 4 mps 739 mmHg 70%
22:00 +20°C° 0 mm 4 mps 739 mmHg 74%
23:00 +19°C° 0 mm 3 mps 739 mmHg 78%

15 August, Saturday

Time Temperature Precipitation Wind Pressure Humidity
00:00 +19°C° 0 mm 3 mps 739 mmHg 78%
01:00 +19°C° 0 mm 3 mps 739 mmHg 78%
02:00 +19°C° 0 mm 2 mps 739 mmHg 78%
03:00 +18°C° 0 mm 2 mps 739 mmHg 79%
04:00 +18°C° 0 mm 2 mps 738 mmHg 80%
05:00 +18°C° 0 mm 2 mps 738 mmHg 80%
06:00 +20°C° 0 mm 2 mps 739 mmHg 70%
07:00 +22°C° 0 mm 3 mps 739 mmHg 60%
08:00 +25°C° 0 mm 4 mps 739 mmHg 49%
09:00 +27°C° 0 mm 4 mps 739 mmHg 44%
10:00 +28°C° 0 mm 5 mps 739 mmHg 38%
11:00 +30°C° 0 mm 6 mps 739 mmHg 32%
12:00 +30°C° 0 mm 6 mps 739 mmHg 32%
13:00 +30°C° 0 mm 6 mps 739 mmHg 32%
14:00 +30°C° 0 mm 6 mps 738 mmHg 31%
15:00 +29°C° 0 mm 6 mps 738 mmHg 34%
16:00 +28°C° 0 mm 5 mps 738 mmHg 37%
17:00 +27°C° 0 mm 5 mps 738 mmHg 40%
18:00 +25°C° 0 mm 5 mps 737 mmHg 48%
19:00 +22°C° 0 mm 4 mps 737 mmHg 57%
20:00 +20°C° 0 mm 4 mps 737 mmHg 66%
21:00 +19°C° 0 mm 3 mps 737 mmHg 70%
22:00 +19°C° 0 mm 3 mps 737 mmHg 75%
23:00 +18°C° 0 mm 3 mps 737 mmHg 79%

16 August, Sunday

Time Temperature Precipitation Wind Pressure Humidity
00:00 +18°C° 0 mm 2 mps 737 mmHg 80%
01:00 +18°C° 0 mm 2 mps 737 mmHg 82%
02:00 +18°C° 0 mm 2 mps 737 mmHg 84%
03:00 +17°C° 0 mm 2 mps 737 mmHg 84%
04:00 +17°C° 0 mm 2 mps 737 mmHg 85%
05:00 +18°C° 0 mm 1 mps 737 mmHg 85%
06:00 +19°C° 0 mm 2 mps 737 mmHg 75%
07:00 +21°C° 0 mm 2 mps 737 mmHg 65%
08:00 +24°C° 0 mm 3 mps 737 mmHg 55%
09:00 +26°C° 0 mm 3 mps 737 mmHg 49%
10:00 +27°C° 0 mm 3 mps 737 mmHg 42%
11:00 +29°C° 0 mm 4 mps 738 mmHg 35%
12:00 +29°C° 0 mm 4 mps 737 mmHg 34%
13:00 +30°C° 0 mm 4 mps 737 mmHg 33%
14:00 +30°C° 0 mm 4 mps 737 mmHg 32%
15:00 +29°C° 0 mm 5 mps 737 mmHg 34%
16:00 +29°C° 0 mm 5 mps 736 mmHg 36%
17:00 +28°C° 0 mm 5 mps 736 mmHg 38%
18:00 +26°C° 0 mm 5 mps 736 mmHg 47%
19:00 +22°C° 0 mm 4 mps 736 mmHg 55%
20:00 +20°C° 0 mm 3 mps 736 mmHg 63%
21:00 +19°C° 0 mm 3 mps 736 mmHg 65%
22:00 +19°C° 0 mm 2 mps 736 mmHg 67%
23:00 +18°C° 0 mm 2 mps 736 mmHg 70%
Show more